Weather observations for the past three days for
Ukiah Municipal Airport
Imperial (Metric)
Date Time (pdt) Wind (mph) Vis. (mi.) Weather Sky Cond. Temperature (ºF) Relative Humidity Wind Chill (°F) Heat Index (°F) Pressure Precipitation (in)
Air Dwpt 6 hour altimeter (in) sea level (mb) 1 hr 3 hr 6 hr
Max. Min.
19 02:56 Calm 10.00 Fair CLR 63 48.9 60% 30.01 1015.4
19 01:56 Calm 10.00 Fair CLR 66.9 48 51% 30.02 1015.6
19 00:56 Calm 10.00 Fair CLR 66.9 48 51% 30.03 1015.8
18 23:56 Calm 10.00 Fair CLR 70 46.9 44% 30.03 1015.8
18 22:56 Calm 10.00 Fair CLR 73 46 97 73 38% 30.03 1015.9
18 21:56 Calm 10.00 Fair CLR 78.1 44.1 30% 78 30.02 1015.5
18 20:56 N 3 10.00 Fair CLR 84.9 42.1 22% 82 30 1015.1
18 19:56 N 9 10.00 Fair CLR 87.1 39 18% 84 29.99 1014.6
18 18:56 N 10 G 18 10.00 Fair CLR 91 42.1 18% 87 29.98 1014.3
18 17:56 N 8 10.00 Fair CLR 93.9 43 17% 90 29.96 1013.8
18 16:56 NW 10 G 23 10.00 Fair CLR 96.1 37.9 100.9 84.9 13% 91 29.95 1013.4
18 15:56 NW 14 G 21 10.00 Fair CLR 100 43 14% 96 29.96 1013.5
18 14:56 NW 12 G 20 10.00 Fair CLR 100.9 37 11% 96 29.97 1013.9
18 13:56 NW 8 10.00 Fair CLR 99 35.1 11% 94 29.98 1014.1
18 12:56 NW 8 10.00 Fair CLR 98.1 44.1 16% 94 29.98 1014.3
18 11:56 Vrbl 3 10.00 Fair CLR 91.9 53.1 27% 89 29.99 1014.6
18 10:56 Calm 10.00 Fair CLR 86 54 86 57 33% 84 30.01 1015.2
18 09:56 Calm 10.00 Fair CLR 79 54 42% 79 30.02 1015.7
18 08:56 Calm 10.00 Fair CLR 73 54 51% 30.03 1016.1
18 07:56 Calm 10.00 Fair CLR 66 53.1 63% 30.03 1016.0
18 06:56 Calm 10.00 Fair CLR 63 52 68% 30.02 1015.7
18 05:56 Calm 10.00 Fair CLR 57.9 51.1 78% 30.01 1015.4
18 04:56 Calm 10.00 Fair CLR 60.1 51.1 71.1 59 72% 30 1015.2
18 03:56 Calm 10.00 Fair CLR 60.1 51.1 72% 30 1015.0
18 02:56 Calm 10.00 Fair CLR 63 50 63% 30 1015.2
18 01:56 Calm 10.00 Fair CLR 64 51.1 63% 30 1015.1
18 00:56 Calm 10.00 Fair CLR 68 48 49% 30.01 1015.2
17 23:56 Calm 10.00 Fair CLR 68 46 45% 30.01 1015.3
17 22:56 Calm 10.00 Fair CLR 71.1 48 93 70 44% 30.01 1015.4
17 21:56 S 3 10.00 Fair CLR 72 46.9 41% 30.01 1015.4
17 20:56 Calm 10.00 Fair CLR 79 42.1 27% 78 29.99 1014.9
17 19:56 N 6 10.00 Fair CLR 82.9 39.9 22% 81 29.98 1014.4
17 18:56 N 7 10.00 Fair CLR 88 44.1 22% 85 29.97 1014.0
17 17:56 N 8 10.00 Fair CLR 91.9 48 22% 89 29.96 1013.8
17 16:56 N 9 10.00 Fair CLR 93 53.1 93 75.9 26% 91 29.97 1014.0
17 15:56 N 10 10.00 Fair CLR 93 53.1 26% 91 29.98 1014.4
17 14:56 N 9 10.00 Fair CLR 93 53.1 26% 91 29.99 1014.6
17 13:56 N 9 10.00 Fair CLR 91.9 53.1 27% 89 30 1015.0
17 12:56 Vrbl 3 10.00 Fair CLR 88 55 33% 86 30.01 1015.5
17 11:56 NW 5 10.00 Fair CLR 82.9 53.1 36% 82 30.02 1015.8
17 10:56 Calm 10.00 Fair CLR 75.9 53.1 75.9 52 45% 78 30.03 1016.1
17 09:56 Calm 10.00 Fair CLR 69.1 53.1 57% 30.04 1016.4
17 08:56 Calm 10.00 Fair CLR 64 51.1 63% 30.04 1016.7
17 07:56 Calm 10.00 Fair CLR 57.9 50 75% 30.04 1016.7
17 06:56 Calm 10.00 Fair CLR 55 48 77% 30.04 1016.6
17 05:56 N 3 10.00 Fair CLR 55 48 77% 30.03 1016.1
17 04:56 E 3 10.00 Fair CLR 54 48 63 53.1 80% 30.01 1015.6
17 03:56 Calm 10.00 Fair CLR 55 48.9 80% 30.01 1015.5
17 02:56 Calm 10.00 Fair CLR 55.9 48.9 77% 30.01 1015.5
17 01:56 Calm 10.00 Fair CLR 55.9 50 81% 30.02 1015.6
17 00:56 Calm 10.00 Fair CLR 57.9 50 75% 30.01 1015.7
16 23:56 Calm 10.00 Fair CLR 61 51.1 70% 30.01 1015.5
16 22:56 N 5 10.00 Fair CLR 63 51.1 87.1 63 65% 30 1015.4
16 21:56 N 3 10.00 Fair CLR 66 51.1 59% 30 1015.1
16 20:56 NE 5 10.00 Fair CLR 68 52 57% 29.98 1014.5
16 19:56 NE 7 10.00 Fair CLR 73 53.1 50% 29.96 1013.8
16 18:56 NE 9 10.00 Fair CLR 80.1 54 41% 80 29.94 1013.0
16 17:56 S 8 10.00 Fair CLR 84.9 54 35% 83 29.92 1012.6
16 16:56 SE 13 G 21 10.00 Fair CLR 87.1 52 88 70 30% 85 29.92 1012.4
16 15:56 SE 14 10.00 Fair CLR 86 52 31% 84 29.93 1012.8
16 14:56 SE 10 10.00 Fair CLR 86 51.1 30% 84 29.95 1013.3
16 13:56 SE 14 10.00 Fair CLR 82.9 52 34% 82 29.96 1013.7
16 12:56 SE 12 10.00 Fair CLR 80.1 52 38% 80 29.97 1014.2
16 11:56 SE 8 10.00 Fair CLR 75 52 45% 78 29.99 1014.7
16 10:56 SE 8 10.00 Fair CLR 71.1 52 71.1 54 51% 30 1015.0
16 09:56 SE 9 10.00 Fair CLR 66.9 51.1 57% 30 1015.2
16 08:56 S 9 10.00 Fair CLR 62.1 50 65% 30.01 1015.4
16 07:56 SE 7 10.00 Fair CLR 57.9 50 75% 30 1015.2
16 06:56 S 5 10.00 Fair CLR 55 48.9 80% 30 1015.0
16 05:56 S 3 10.00 Fair CLR 55 48.9 80% 29.99 1014.8
16 04:56 Calm 10.00 Fair CLR 55.9 48.9 68 55.9 77% 29.98 1014.5
16 03:56 Calm 10.00 Fair CLR 57 48.9 74% 29.97 1014.3
Date Time (pdt) Wind (mph) Vis. (mi.) Weather Sky Cond. Air Dwpt Max. Min. Relative Humidity Wind Chill (°F) Heat Index (°F) altimeter (in) sea level (mb) 1 hr 3 hr 6 hr
6 hour
Temperature (ºF) Pressure Precipitation (in)